User: anonymous   Login
Location: ??
(35.5052°N, 139.7262°E)
Time: 02:17:05
(UTC+00:00)
Language:

Cosmos 1833 Rocket - Orbit

View from above orbital plane
View from above orbital plane
View from above satellite
View from above satellite

Ground track
Ground track

The orbit data is extracted from the following two-line orbital elements,

1 17590U 87027B   21260.34895932  .00000112  00000-0  79624-4 0  9996
2 17590  71.0017 119.2084 0002811  96.8177 263.3266 14.16804130784101
Epoch (UTC): 17 September 2021 08:22:30
Eccentricity: 0.0002811
inclination: 71.0017°
perigee height: 834 km
apogee height: 838 km
right ascension of ascending node: 119.2084°
argument of perigee: 96.8177°
revolutions per day: 14.16804130
mean anomaly at epoch: 263.3266°
orbit number at epoch: 78410

The dashed part of the orbit path shows where the satellite is in the earth's shadow,  

DLR